COSMOS 682

Satellite information

Favourite Embed

Satellite Type and Status

PAYLOADIN ORBIT

Key statistics

Satellite COSMOS 682 at a glance.

Uptime

18713

Days in orbit

Revolutions

≈ 12.5

Per day

Orbit

LEO

Low Earth Orbit

Inclination

74.0

Latest

Satellite identification and parameters

Extended collection of information and parameters for COSMOS 682.

Object identification

Identified? True

Debris? False

Object name: COSMOS 682

International designator: 1974-072F

Object number (NORAD): 7440

Object ID (CCSDS): 7440

Country: COMMONWEALTH OF INDEPENDENT STATES (CIS)

Current information (Y/N): Y

RCS size: MEDIUM

Orbital parameters

Period: 115.081 minutes

Inclination: 74.0322 deg

SMA: 7837.215 km

Apoapsis: 1466.443 km

Periapsis: 1451.716 km

RAAN: 160.0308 deg

Eccentricy: 0.00093958

Argument of periapsis: 327.9467 deg

Mean anomaly: 205.1998 deg

Mean motion: 12.51296291 rev/day

Mean motion (dot): 0.00000004 rev/day2

B* drag term: 0.00012747888 1/REarth

Two-line elements (TLE)

Creation date: Dec. 12, 2025, 10:14 a.m.

Reference frame: TEME

Reference center: EARTH

Epoch: Dec. 12, 2025, 5:57 a.m. UTC

TLE line 0: 0 COSMOS 682

TLE line 1: 1 07440U 74072F 25346.24814716 .00000004 00000-0 12748-3 0 9997

TLE line 2: 2 07440 74.0322 160.0308 0009396 327.9467 205.1998 12.51296291340096

Live tracking on map

Real-time ground track for satellite COSMOS 682.

In-orbit conjunctions

A list of the most updated potential collisions computed for object COSMOS 682.

Target Orbit TCA Probability of collision Miss distance Type
COSMOS 2499 DEB LEO 2025-11-28 08:22:19 0.0001097645 757.0 (m) DEBRIS

Associated space launch

Military communications satellites

COSMOS 682 was lifted into orbit during the mission ‘Kosmos-3M | Strela-1M 73-80’, on board a Kosmos-3M space rocket.

The launch took place on Sept. 19, 1974, 2:57 p.m. from 132/2.

For more information about the launch, click the button.

Launch to space Kosmos-3M | Strela-1M 73-80
Kosmos-3M | Strela-1M 73-80

Agency: N/A

Status: Launch Successful

Launch date: Sept. 19, 1974, 2:57 p.m. UTC

Rocket: Kosmos-3M

Launch pad: 132/2

Location: Plesetsk Cosmodrome, Russian Federation

...

Latest news about this satellite

There are no fresh news available about this satellite. Check back as we update our databases every day.


Newsletter sign-up

Weekly statistics, charts and insights to help you stay on top of the space industry.